Regional Weather Roundup
Issued by NWS

Home | Current Version | Previous Version | Graphics & Text | Print | Product List | Glossary On
Versions: 1 2 3 4 5 6 7 8 9 10 11 12 13 14 15 16 17 18 19 20 21 22 23 24 25 26 27 28 29 30 31 32 33 34 35 36 37 38 39 40 41 42 43 44 45 46 47 48 49 50
000
ASUS43 KMPX 311310
RWRMN
WEATHER ROUNDUP FOR MINNESOTA
NATIONAL WEATHER SERVICE TWIN CITIES/CHANHASSEN MN
800 AM CDT TUE MAY 31 2016


NOTE: "FAIR" INDICATES FEW OR NO CLOUDS BELOW 12,000 FEET WITH NO
SIGNIFICANT WEATHER AND/OR OBSTRUCTIONS TO VISIBILITY. N/A MEANS
CURRENT SKY AND/OR WEATHER CONDITIONS ARE NOT AVAILABLE.

MNZ060>063-068>070-311400-
   Twin Cities Metro

CITY           SKY/WX    TMP DP  RH WIND       PRES   REMARKS
TWIN CITIES    CLOUDY    66  57  72 S12       29.87R
ST PAUL        LGT RAIN  65  58  78 S14       29.88R
CRYSTAL        PTSUNNY   67  56  67 SE10      29.85R
BLAINE         CLOUDY    68  57  68 SE12      29.86S
EDEN PRAIRIE   LGT RAIN  66  59  78 S10       29.86R
SOUTH ST PAUL  RAIN      65  58  80 S10G20    29.89R
LAKE ELMO      PTSUNNY   66  57  72 S12       29.90R
$$
MNZ001>005-007-008-013>017-022>024-027-028-311400-
   Northwest Minnesota

CITY           SKY/WX    TMP DP  RH WIND       PRES   REMARKS
BEMIDJI        CLOUDY    52  51  96 E15       29.80F
HALLOCK        CLOUDY    59  55  88 SE20      29.70S FOG
ROSEAU         CLOUDY    54  48  82 E12G18    29.79S
WARROAD        RAIN      54  48  82 E23G31    29.82S
THIEF RVR FALL CLOUDY    57  54  88 SE16G24   29.74F
CROOKSTON      HVY RAIN  59  57  94 S14       29.72S
FOSSTON        CLOUDY    57  55  94 SE10G20   29.75S
DETROIT LAKES  RAIN      61  59  94 S10       29.77S
MOORHEAD       PTSUNNY   61  57  88 SW10      29.74R
PARK RAPIDS    CLOUDY    57  54  89 SE14      29.80F
MAHNOMEN       CLOUDY    61  58  91 SE13      29.74F
$$
MNZ006-009>011-018-025>026-311400-
   North Central Minnesota

CITY           SKY/WX    TMP DP  RH WIND       PRES   REMARKS
BAUDETTE       LGT RAIN  51  47  86 SE20G29   29.86R FOG
FLAG ISLAND    LGT RAIN  52  50  93 E9G17     29.85F
INTL FALLS     LGT RAIN  49  45  86 E10       29.93F FOG
WASKISH        HVY RAIN  52  48  87 E16G24    29.85S
BIG FORK       LGT RAIN  48  46  93 E8        29.90S
LONGVILLE      LGT RAIN  52  50  93 SE6       29.86R
GRAND RAPIDS   LGT RAIN  48  47  96 NE8       29.91R
CRANE LAKE     RAIN      46  45  93 CALM      29.99S
ORR            RAIN      46  43  87 E3        29.91F
COOK           LGT RAIN  46  43  87 E5        29.94F
WALKER         DRIZZLE   53  51  95 SE8       29.83S
$$
MNZ012-019>021-037-311400-
   Northeast Minnesota

CITY           SKY/WX    TMP DP  RH WIND       PRES   REMARKS
DULUTH         CLOUDY    47  41  80 E18G25    29.97R
ELY            CLOUDY    48  37  66 E18G25    29.97F
HIBBING        LGT RAIN  47  43  86 SE9G20    29.93S
EVELETH        CLOUDY    52  41  66 E8G17     29.96R
DULUTH HARBOR  CLOUDY    45  43  93 NE24G33   29.99S
TWO HARBORS    CLOUDY    48  43  81 NE20G26   29.97S
SILVER BAY     CLOUDY    46  39  76 NE17G25   30.02S
GRAND MARAIS     N/A     46  39  76 NE18G25   30.09F
G MARAIS ARPRT MOSUNNY   45  36  70 E13G24    30.08F
$$
MNZ029>031-032-039>041-046>048-054>057-064-311400-
   West Central Minnesota

CITY           SKY/WX    TMP DP  RH WIND       PRES   REMARKS
FERGUS FALLS   CLOUDY    61  61 100 W8G16     29.74S
WHEATON        CLOUDY    63  57  82 SW13      29.81R
MORRIS         CLOUDY    61  57  88 W12       29.80R
ALEXANDRIA     LGT RAIN  61  58  90 S9        29.81S
ELBOW LAKE     CLOUDY    60  58  92 SW10      29.79R
WADENA         CLOUDY    61  59  94 SE9       29.80S
GLENWOOD       LGT RAIN  61  59  94 S9        29.82S
APPLETON       PTSUNNY   63  57  82 SW12      29.81S
BENSON         CLOUDY    63  55  77 W9        29.82R
ORTONVILLE     CLOUDY    61  55  82 W8        29.82R
MADISON        CLOUDY    63  57  82 W12       29.83S
WILLMAR        DRIZZLE   63  63 100 SW8       29.84R
$$
MNZ033>034-036-042>043-049>051-058-059-311400-
   Central Minnesota

CITY           SKY/WX    TMP DP  RH WIND       PRES   REMARKS
ST CLOUD       LGT RAIN  63  61  93 S6        29.84R
SAUK CENTRE    LGT RAIN  60  60  97 SE9       29.82F
PAYNESVILLE    RAIN      62  62 100 SE8       29.84R
AITKIN         MIX PCPN  52  46  82 E9        29.86S
PINE RIVER     LGT RAIN  52  52 100 E9        29.88R
BRAINERD       RAIN      54  53  97 VRB7      29.85R FOG
STAPLES        LGT RAIN  61  61 100 SE8       29.81F
LONG PRAIRIE   LGT RAIN  59  59 100 E9        29.82S
LITTLE FALLS   LGT RAIN  61  59  94 SE9       29.84S
LITCHFIELD     DRIZZLE   63  63 100 S6        29.85R
BUFFALO        RAIN      64  59  83 SE12      29.84S
MAPLE LAKE     LGT RAIN  64  61  90 S6        29.86R
HUTCHINSON     LGT RAIN  63  62  96 S7        29.88R
$$
MNZ037-044-045-052-053-311400-
   East Central Minnesota

CITY           SKY/WX    TMP DP  RH WIND       PRES   REMARKS
PRINCETON      CLOUDY    66  61  82 E7        29.85S
MORA           PTSUNNY   52  48  87 E5        29.90R
CAMBRIDGE      PTSUNNY   68  55  64 E5        29.85R
RUSH CITY      CLOUDY    59  53  81 NE6       29.87F
MOOSE LAKE     CLOUDY    45  43  93 E6        29.92R
HINCKLEY       PTSUNNY   50  48  93 NE7       29.90S
CLOQUET        CLOUDY    46  43  87 E15G21    29.95S
MCGREGOR       CLOUDY    46  45  93 E12       29.90S
$$
MNZ071>073-080-081-089-090-097-098-311400-
   Southwest Minnesota

CITY           SKY/WX    TMP DP  RH WIND       PRES   REMARKS
MONTEVIDEO     CLOUDY    63  61  94 W8        29.85R
GRANITE FALLS  CLOUDY    65  61  87 W16       29.85S
CANBY          CLOUDY    64  59  84 W8        29.86R
MARSHALL       CLOUDY    62  56  80 W13       29.86R
REDWOOD FALLS  LGT RAIN  65  60  84 SW14      29.84R
OLIVIA         CLOUDY    72  68  88 SW17      29.84R
PIPESTONE      CLOUDY    61  55  82 W7        29.90R
WINDOM         PTSUNNY   63  59  88 SW10G16   29.89R
WORTHINGTON      N/A     61  59  93 W13       29.90R
JACKSON        RAIN      63  59  88 SW9       29.90R
TRACY          CLOUDY    63  60  90 W9        29.87R
SLAYTON        CLOUDY    60  58  94 W10       29.90R
$$
MNZ065>067-074>077-082>085-091>093-311400-
   South Central Minnesota

CITY           SKY/WX    TMP DP  RH WIND       PRES   REMARKS
MANKATO        CLOUDY    63  59  88 S6        29.87S
NEW ULM        CLOUDY    63  63 100 SW10      29.86R
ST JAMES       LGT RAIN  57  57 100 S13       29.88R
FAIRMONT       CLOUDY    63  61  94 S9        29.88R
GLENCOE        RAIN      64  62  92 S9        29.85R
FARIBAULT      CLOUDY    63  61  94 S7        29.91R
OWATONNA       RAIN      63  59  88 S10       29.90F
WASECA         RAIN      63  59  88 SE10      29.89F
ALBERT LEA     DRIZZLE   63  61  94 S7        29.91F
$$
MNZ078>079-086>088-094>096-311400-
   Southeast Minnesota

CITY           SKY/WX    TMP DP  RH WIND       PRES   REMARKS
ROCHESTER      CLOUDY    64  57  78 S12       29.93S
RED WING       TSTM      63  59  88 N3        29.92R
STANTON        CLOUDY    63  59  88 S5        29.90S
DODGE CENTER   CLOUDY    66  55  68 S18       29.92R
WINONA         CLOUDY    70  57  64 SE5       29.93R
AUSTIN         CLOUDY    63  57  82 S8        29.93R
PRESTON        CLOUDY    64  56  77 S10       29.95S
$$
ABBREVIATIONS USED IN REMARKS
   TC - TEMPERATURES IN CELSIUS
  WCI - WIND CHILL INDEX
   HX - HEAT INDEX
  VSB - VISIBILITY
$$




USA.gov is the U.S. government's official web portal to all federal, state and local government web resources and services.